カタログに戻る

STARLINK-34488

運用中通信VLEO
NORAD 64604·PAYLOAD·🇺🇸 United States

打ち上げ Jun 25, 2025 から Cape Canaveral Space Force Station

Loading…

次のパス (今後24時間)

TLE

最新Source: CelesTrak SupGP

元期: Sep 15, 2026, 03:06 UTC

1 64604C 25137L   26258.12965278 -.00037426  00000+0 -11058-2 0  2589
2 64604  53.1597 174.5786 0001305  90.1141 115.1858 15.34406797    11

AllMySatでSTARLINK-34488をリアルタイム追跡

Download on the App Store